Time,TemperatureF,DewpointF,PressureIn,WindDirection,WindDirectionDegrees,WindSpeedMPH,WindSpeedGustMPH,Humidity,HourlyPrecipIn,Conditions,Clouds,dailyrainin,SolarRadiationWatts/m^2,SoftwareType,DateUTC
2013-04-02 00:03:00,46.0,28.0,-100.00,ENE,73,4.0,12.0,49,0.00,,,0.04,0.000000,,2013-04-02 04:03:00,
2013-04-02 00:23:00,45.0,28.0,-100.00,East,88,7.0,14.0,51,0.00,,,0.03,0.000000,,2013-04-02 04:23:00,
2013-04-02 00:33:00,45.0,28.0,-100.00,East,88,7.0,14.0,51,0.00,,,0.03,0.000000,,2013-04-02 04:33:00,
2013-04-02 00:43:00,45.0,28.0,-100.00,East,88,7.0,14.0,51,0.00,,,0.03,0.000000,,2013-04-02 04:43:00,
2013-04-02 00:53:00,45.0,28.0,-100.00,East,88,7.0,14.0,51,0.00,,,0.03,0.000000,,2013-04-02 04:53:00,
2013-04-02 01:02:00,45.0,28.0,-100.00,East,88,7.0,14.0,51,0.00,,,0.03,0.000000,,2013-04-02 05:02:00,
2013-04-02 01:32:00,44.0,27.0,-100.00,ESE,109,6.0,21.0,50,0.00,,,0.01,0.000000,,2013-04-02 05:32:00,
2013-04-02 01:43:00,44.0,27.0,-100.00,ESE,109,6.0,21.0,50,0.00,,,0.01,0.000000,,2013-04-02 05:43:00,
2013-04-02 01:52:00,44.0,27.0,-100.00,ESE,109,6.0,21.0,50,0.00,,,0.01,0.000000,,2013-04-02 05:52:00,
2013-04-02 02:02:00,44.0,27.0,-100.00,ESE,109,6.0,21.0,50,0.00,,,0.01,0.000000,,2013-04-02 06:02:00,
2013-04-02 02:22:00,43.0,25.0,-100.00,East,83,6.0,15.0,48,0.00,,,0.00,0.000000,,2013-04-02 06:22:00,
2013-04-02 02:32:00,43.0,25.0,-100.00,East,83,6.0,15.0,48,0.00,,,0.00,0.000000,,2013-04-02 06:32:00,
2013-04-02 02:42:00,43.0,25.0,-100.00,East,83,6.0,15.0,48,0.00,,,0.00,0.000000,,2013-04-02 06:42:00,
2013-04-02 02:52:00,43.0,25.0,-100.00,East,83,6.0,15.0,48,0.00,,,0.00,0.000000,,2013-04-02 06:52:00,
2013-04-02 03:02:00,43.0,25.0,-100.00,East,83,6.0,15.0,48,0.00,,,0.00,0.000000,,2013-04-02 07:02:00,
2013-04-02 03:32:00,40.0,24.0,-100.00,ENE,78,2.0,15.0,53,0.00,,,0.00,0.000000,,2013-04-02 07:32:00,
2013-04-02 03:43:00,40.0,24.0,-100.00,ENE,78,2.0,15.0,53,0.00,,,0.00,0.000000,,2013-04-02 07:43:00,
2013-04-02 03:53:00,40.0,24.0,-100.00,ENE,78,2.0,15.0,53,0.00,,,0.00,0.000000,,2013-04-02 07:53:00,
2013-04-02 04:02:00,40.0,24.0,-100.00,ENE,78,2.0,15.0,53,0.00,,,0.00,0.000000,,2013-04-02 08:02:00,
2013-04-02 04:32:00,36.0,26.0,-100.00,East,87,2.0,11.0,66,0.00,,,0.00,0.000000,,2013-04-02 08:32:00,
2013-04-02 04:43:00,36.0,26.0,-100.00,East,87,2.0,11.0,66,0.00,,,0.00,0.000000,,2013-04-02 08:43:00,
2013-04-02 04:52:00,36.0,26.0,-100.00,East,87,2.0,11.0,66,0.00,,,0.00,0.000000,,2013-04-02 08:52:00,
2013-04-02 05:02:00,36.0,26.0,-100.00,East,87,2.0,11.0,66,0.00,,,0.00,0.000000,,2013-04-02 09:02:00,
2013-04-02 05:33:00,35.0,29.0,-100.00,North,356,4.0,11.0,78,0.00,,,0.00,0.000000,,2013-04-02 09:33:00,
2013-04-02 05:43:00,35.0,29.0,-100.00,North,356,4.0,11.0,78,0.00,,,0.00,0.000000,,2013-04-02 09:43:00,
2013-04-02 05:53:00,35.0,29.0,-100.00,North,356,4.0,11.0,78,0.00,,,0.00,0.000000,,2013-04-02 09:53:00,
2013-04-02 06:03:00,35.0,29.0,-100.00,North,356,4.0,11.0,78,0.00,,,0.00,0.000000,,2013-04-02 10:03:00,
2013-04-02 06:24:00,35.0,25.0,-100.00,NNW,329,5.0,12.0,67,0.00,,,0.00,0.000000,,2013-04-02 10:24:00,
2013-04-02 06:33:00,35.0,25.0,-100.00,NNW,329,5.0,12.0,67,0.00,,,0.00,0.000000,,2013-04-02 10:33:00,
2013-04-02 06:43:00,35.0,25.0,-100.00,NNW,329,5.0,12.0,67,0.00,,,0.00,0.000000,,2013-04-02 10:43:00,
2013-04-02 06:53:00,35.0,25.0,-100.00,NNW,329,5.0,12.0,67,0.00,,,0.00,0.000000,,2013-04-02 10:53:00,
2013-04-02 07:02:00,35.0,25.0,-100.00,NNW,329,5.0,12.0,67,0.00,,,0.00,0.000000,,2013-04-02 11:02:00,
2013-04-02 07:33:00,33.0,22.0,-100.00,NNW,342,3.0,11.0,63,0.00,,,0.00,0.000000,,2013-04-02 11:33:00,
2013-04-02 07:43:00,33.0,22.0,-100.00,NNW,342,3.0,11.0,63,0.00,,,0.00,0.000000,,2013-04-02 11:43:00,
2013-04-02 07:53:00,33.0,22.0,-100.00,NNW,342,3.0,11.0,63,0.00,,,0.00,0.000000,,2013-04-02 11:53:00,
2013-04-02 08:02:00,33.0,22.0,-100.00,NNW,342,3.0,11.0,63,0.00,,,0.00,0.000000,,2013-04-02 12:02:00,
2013-04-02 08:32:00,34.0,23.0,-100.00,NW,307,3.0,7.0,65,0.00,,,0.00,14.000000,,2013-04-02 12:32:00,
2013-04-02 08:42:00,34.0,23.0,-100.00,NW,307,3.0,7.0,65,0.00,,,0.00,14.000000,,2013-04-02 12:42:00,
2013-04-02 08:53:00,34.0,23.0,-100.00,NW,307,3.0,7.0,65,0.00,,,0.00,14.000000,,2013-04-02 12:53:00,
2013-04-02 09:02:00,34.0,23.0,-100.00,NW,307,3.0,7.0,65,0.00,,,0.00,14.000000,,2013-04-02 13:02:00,
2013-04-02 09:33:00,39.0,22.0,-100.00,ENE,77,5.0,9.0,50,0.00,,,0.00,41.000000,,2013-04-02 13:33:00,
2013-04-02 09:42:00,39.0,22.0,-100.00,ENE,77,5.0,9.0,50,0.00,,,0.00,41.000000,,2013-04-02 13:42:00,
2013-04-02 09:52:00,39.0,22.0,-100.00,ENE,77,5.0,9.0,50,0.00,,,0.00,41.000000,,2013-04-02 13:52:00,
2013-04-02 10:02:00,39.0,22.0,-100.00,ENE,77,5.0,9.0,50,0.00,,,0.00,41.000000,,2013-04-02 14:02:00,
2013-04-02 10:33:00,44.0,22.0,-100.00,SE,139,3.0,10.0,41,0.00,,,0.00,347.000000,,2013-04-02 14:33:00,
2013-04-02 10:43:00,44.0,22.0,-100.00,SE,139,3.0,10.0,41,0.00,,,0.00,347.000000,,2013-04-02 14:43:00,
2013-04-02 10:52:00,44.0,22.0,-100.00,SE,139,3.0,10.0,41,0.00,,,0.00,347.000000,,2013-04-02 14:52:00,
2013-04-02 11:02:00,44.0,22.0,-100.00,SE,139,3.0,10.0,41,0.00,,,0.00,347.000000,,2013-04-02 15:02:00,
2013-04-02 11:04:00,46.0,26.0,-100.00,SSE,155,4.0,10.0,45,0.00,,,0.00,589.000000,,2013-04-02 15:04:00,
2013-04-02 11:33:00,46.0,26.0,-100.00,SSE,155,4.0,10.0,45,0.00,,,0.00,589.000000,,2013-04-02 15:33:00,
2013-04-02 11:43:00,46.0,26.0,-100.00,SSE,155,4.0,10.0,45,0.00,,,0.00,589.000000,,2013-04-02 15:43:00,
2013-04-02 11:58:00,46.0,26.0,-100.00,SSE,155,4.0,10.0,45,0.00,,,0.00,589.000000,,2013-04-02 15:58:00,
2013-04-02 12:04:00,49.0,25.0,-100.00,SSE,162,6.0,9.0,38,0.00,,,-99.99,783.000000,,2013-04-02 16:04:00,
2013-04-02 12:39:00,49.0,25.0,-100.00,SSE,162,6.0,9.0,38,0.00,,,-99.99,783.000000,,2013-04-02 16:39:00,
2013-04-02 12:54:00,49.0,25.0,-100.00,SSE,162,6.0,9.0,38,0.00,,,-99.99,783.000000,,2013-04-02 16:54:00,
2013-04-02 13:04:00,53.0,26.0,-100.00,ESE,110,4.0,10.0,35,0.00,,,0.00,945.000000,,2013-04-02 17:04:00,
2013-04-02 13:35:00,53.0,26.0,-100.00,ESE,110,4.0,10.0,35,0.00,,,0.00,945.000000,,2013-04-02 17:35:00,
2013-04-02 13:44:00,53.0,26.0,-100.00,ESE,110,4.0,10.0,35,0.00,,,0.00,945.000000,,2013-04-02 17:44:00,
2013-04-02 13:57:00,53.0,26.0,-100.00,ESE,110,4.0,10.0,35,0.00,,,0.00,945.000000,,2013-04-02 17:57:00,
2013-04-02 14:35:00,55.0,25.0,-100.00,South,186,4.0,9.0,31,0.00,,,0.00,915.000000,,2013-04-02 18:35:00,
2013-04-02 14:43:00,55.0,25.0,-100.00,South,186,4.0,9.0,31,0.00,,,0.00,915.000000,,2013-04-02 18:43:00,
2013-04-02 14:57:00,55.0,25.0,-100.00,South,186,4.0,9.0,31,0.00,,,0.00,915.000000,,2013-04-02 18:57:00,
2013-04-02 15:03:00,55.0,25.0,-100.00,South,186,4.0,9.0,31,0.00,,,0.00,915.000000,,2013-04-02 19:03:00,
2013-04-02 15:34:00,57.0,25.0,-100.00,ENE,61,5.0,11.0,29,0.00,,,0.00,754.000000,,2013-04-02 19:34:00,
2013-04-02 15:47:00,57.0,25.0,-100.00,ENE,61,5.0,11.0,29,0.00,,,0.00,754.000000,,2013-04-02 19:47:00,
2013-04-02 15:57:00,57.0,25.0,-100.00,ENE,61,5.0,11.0,29,0.00,,,0.00,754.000000,,2013-04-02 19:57:00,
2013-04-02 16:03:00,57.0,25.0,-100.00,ENE,61,5.0,11.0,29,0.00,,,0.00,754.000000,,2013-04-02 20:03:00,
2013-04-02 16:04:00,58.0,22.0,-100.00,East,87,5.0,11.0,25,0.00,,,0.00,721.000000,,2013-04-02 20:04:00,
2013-04-02 16:34:00,58.0,22.0,-100.00,East,87,5.0,11.0,25,0.00,,,0.00,721.000000,,2013-04-02 20:34:00,
2013-04-02 16:44:00,58.0,22.0,-100.00,East,87,5.0,11.0,25,0.00,,,0.00,721.000000,,2013-04-02 20:44:00,
2013-04-02 16:55:00,58.0,22.0,-100.00,East,87,5.0,11.0,25,0.00,,,0.00,721.000000,,2013-04-02 20:55:00,
2013-04-02 18:34:00,55.0,18.0,-100.00,NE,50,5.0,10.0,23,-99.99,,,0.00,268.000000,,2013-04-02 22:34:00,
2013-04-02 18:44:00,55.0,18.0,-100.00,NE,50,5.0,10.0,23,-99.99,,,0.00,268.000000,,2013-04-02 22:44:00,
2013-04-02 18:54:00,55.0,18.0,-100.00,NE,50,5.0,10.0,23,-99.99,,,0.00,268.000000,,2013-04-02 22:54:00,
2013-04-02 19:03:00,55.0,18.0,-100.00,NE,50,5.0,10.0,23,-99.99,,,0.00,268.000000,,2013-04-02 23:03:00,
2013-04-02 19:04:00,51.0,16.0,-100.00,ENE,62,5.0,9.0,25,0.00,,,0.00,88.000000,,2013-04-02 23:04:00,
2013-04-02 19:37:00,51.0,16.0,-100.00,ENE,62,5.0,9.0,25,0.00,,,0.00,88.000000,,2013-04-02 23:37:00,
2013-04-02 19:43:00,51.0,16.0,-100.00,ENE,62,5.0,9.0,25,0.00,,,0.00,88.000000,,2013-04-02 23:43:00,
2013-04-02 19:54:00,51.0,16.0,-100.00,ENE,62,5.0,9.0,25,0.00,,,0.00,88.000000,,2013-04-02 23:54:00,
2013-04-02 20:04:00,47.0,16.0,-100.00,ENE,65,5.0,14.0,29,0.00,,,0.00,12.000000,,2013-04-03 00:04:00,
2013-04-02 20:34:00,47.0,16.0,-100.00,ENE,65,5.0,14.0,29,0.00,,,0.00,12.000000,,2013-04-03 00:34:00,
2013-04-02 20:57:00,47.0,16.0,-100.00,ENE,65,5.0,14.0,29,0.00,,,0.00,12.000000,,2013-04-03 00:57:00,
2013-04-02 21:04:00,45.0,17.0,-100.00,ESE,103,2.0,9.0,32,0.00,,,0.00,0.000000,,2013-04-03 01:04:00,
2013-04-02 21:34:00,45.0,17.0,-100.00,ESE,103,2.0,9.0,32,0.00,,,0.00,0.000000,,2013-04-03 01:34:00,
2013-04-02 21:43:00,45.0,17.0,-100.00,ESE,103,2.0,9.0,32,0.00,,,0.00,0.000000,,2013-04-03 01:43:00,
2013-04-02 21:54:00,45.0,17.0,-100.00,ESE,103,2.0,9.0,32,0.00,,,0.00,0.000000,,2013-04-03 01:54:00,
2013-04-02 22:04:00,44.0,17.0,-100.00,NE,41,4.0,12.0,33,0.00,,,0.00,0.000000,,2013-04-03 02:04:00,
2013-04-02 22:34:00,44.0,17.0,-100.00,NE,41,4.0,12.0,33,0.00,,,0.00,0.000000,,2013-04-03 02:34:00,
2013-04-02 22:44:00,44.0,17.0,-100.00,NE,41,4.0,12.0,33,0.00,,,0.00,0.000000,,2013-04-03 02:44:00,
2013-04-02 22:53:00,44.0,17.0,-100.00,NE,41,4.0,12.0,33,0.00,,,0.00,0.000000,,2013-04-03 02:53:00,
2013-04-02 23:23:00,43.0,17.0,-100.00,NNW,334,3.0,10.0,35,0.00,,,0.00,0.000000,,2013-04-03 03:23:00,
2013-04-02 23:38:00,43.0,17.0,-100.00,NNW,334,3.0,10.0,35,0.00,,,0.00,0.000000,,2013-04-03 03:38:00,
2013-04-02 23:44:00,43.0,17.0,-100.00,NNW,334,3.0,10.0,35,0.00,,,0.00,0.000000,,2013-04-03 03:44:00,
2013-04-02 23:54:00,43.0,17.0,-100.00,NNW,334,3.0,10.0,35,0.00,,,0.00,0.000000,,2013-04-03 03:54:00,